Torna al catalogo

STARLINK-11316

AttivoComunicazioniVLEO
NORAD 61875·PAYLOAD·🇺🇸 United States

Lanciato Nov 9, 2024 da Vandenberg Space Force Base

Loading…

Prossimi Passaggi (prossime 24 ore)

TLE

AggiornatoSource: CelesTrak SupGP

Epoca: Sep 14, 2026, 20:37 UTC

1 61875C 24204B   26257.85951389 -.00029706  00000+0 -24463-3 0  2573
2 61875  53.1566 143.3880 0001200  89.7916 158.2243 15.69730907    18

Traccia STARLINK-11316 in tempo reale con AllMySat

Download on the App Store